Time,TemperatureF,DewpointF,PressureIn,WindDirection,WindDirectionDegrees,WindSpeedMPH,WindSpeedGustMPH,Humidity,HourlyPrecipIn,Conditions,Clouds,dailyrainin,SoftwareType,DateUTC
2013-10-15 00:02:00,46.2,42.2,30.12,SE,125,1.0,2.0,86,0.00,,---,0.00,VWS V14.01,2013-10-15 05:02:00,
2013-10-15 00:07:00,46.1,42.2,30.12,ESE,106,0.0,4.0,86,0.00,,---,0.00,VWS V14.01,2013-10-15 05:07:00,
2013-10-15 00:12:00,46.1,42.2,30.12,ESE,111,0.0,4.0,86,0.00,,---,0.00,VWS V14.01,2013-10-15 05:12:00,
2013-10-15 00:17:00,46.1,42.2,30.11,East,98,0.0,4.0,86,0.00,,---,0.00,VWS V14.01,2013-10-15 05:17:00,
2013-10-15 00:22:00,46.0,42.0,30.11,ESE,102,2.0,4.0,86,0.00,,---,0.00,VWS V14.01,2013-10-15 05:22:00,
2013-10-15 00:27:00,46.0,42.0,30.11,East,100,1.0,4.0,86,0.00,,---,0.00,VWS V14.01,2013-10-15 05:27:00,
2013-10-15 00:32:00,45.9,42.0,30.11,East,97,2.0,3.0,86,0.00,,---,0.00,VWS V14.01,2013-10-15 05:32:00,
2013-10-15 00:37:00,45.9,42.3,30.11,ESE,113,0.0,3.0,87,0.00,,---,0.00,VWS V14.01,2013-10-15 05:37:00,
2013-10-15 00:42:00,45.9,42.0,30.11,East,87,1.0,3.0,86,0.00,,---,0.00,VWS V14.01,2013-10-15 05:42:00,
2013-10-15 00:47:00,45.8,42.2,30.10,ESE,111,0.0,3.0,87,0.00,,---,0.00,VWS V14.01,2013-10-15 05:47:00,
2013-10-15 00:52:00,45.7,42.1,30.10,ESE,112,0.0,3.0,87,0.00,,---,0.00,VWS V14.01,2013-10-15 05:52:00,
2013-10-15 00:58:00,45.7,42.1,30.10,ESE,117,0.0,3.0,87,0.00,,---,0.00,VWS V14.01,2013-10-15 05:58:00,
2013-10-15 01:03:00,45.7,42.1,30.09,ESE,107,2.0,2.0,87,0.00,,---,0.00,VWS V14.01,2013-10-15 06:03:00,
2013-10-15 01:08:00,45.7,41.8,30.09,ESE,107,2.0,5.0,86,0.00,,---,0.00,VWS V14.01,2013-10-15 06:08:00,
2013-10-15 01:13:00,45.6,41.7,30.09,ESE,111,1.0,5.0,86,0.00,,---,0.00,VWS V14.01,2013-10-15 06:13:00,
2013-10-15 01:18:00,45.6,42.0,30.07,ESE,116,0.0,5.0,87,0.00,,---,0.00,VWS V14.01,2013-10-15 06:18:00,
2013-10-15 01:23:00,45.5,41.9,30.07,ESE,122,2.0,5.0,87,0.00,,---,0.00,VWS V14.01,2013-10-15 06:23:00,
2013-10-15 01:28:00,45.5,41.9,30.07,SE,128,0.0,5.0,87,0.00,,---,0.00,VWS V14.01,2013-10-15 06:28:00,
2013-10-15 01:33:00,45.5,41.9,30.07,East,91,0.0,0.0,87,0.00,,---,0.00,VWS V14.01,2013-10-15 06:33:00,
2013-10-15 01:38:00,45.5,41.9,30.07,SE,128,3.0,3.0,87,0.00,,---,0.00,VWS V14.01,2013-10-15 06:38:00,
2013-10-15 01:43:00,45.5,41.9,30.07,ESE,106,1.0,4.0,87,0.00,,---,0.00,VWS V14.01,2013-10-15 06:43:00,
2013-10-15 01:48:00,45.6,42.0,30.08,ESE,112,1.0,4.0,87,0.00,,---,0.00,VWS V14.01,2013-10-15 06:48:00,
2013-10-15 01:53:00,45.6,42.0,30.08,ESE,103,1.0,4.0,87,0.00,,---,0.00,VWS V14.01,2013-10-15 06:53:00,
2013-10-15 01:58:00,45.7,42.1,30.08,East,94,0.0,4.0,87,0.00,,---,0.00,VWS V14.01,2013-10-15 06:58:00,
2013-10-15 02:03:00,45.6,42.0,30.06,SE,126,1.0,3.0,87,0.00,,---,0.00,VWS V14.01,2013-10-15 07:03:00,
2013-10-15 02:08:00,45.5,42.2,30.06,ESE,116,0.0,3.0,88,0.00,,---,0.00,VWS V14.01,2013-10-15 07:08:00,
2013-10-15 02:13:00,45.5,42.2,30.06,ESE,111,3.0,4.0,88,0.00,,---,0.00,VWS V14.01,2013-10-15 07:13:00,
2013-10-15 02:18:00,45.6,42.3,30.05,SE,130,1.0,4.0,88,0.00,,---,0.00,VWS V14.01,2013-10-15 07:18:00,
2013-10-15 02:23:00,45.6,42.3,30.05,ESE,111,2.0,4.0,88,0.00,,---,0.00,VWS V14.01,2013-10-15 07:23:00,
2013-10-15 02:28:00,45.6,42.3,30.05,ESE,104,3.0,4.0,88,0.00,,---,0.00,VWS V14.01,2013-10-15 07:28:00,
2013-10-15 02:33:00,45.7,42.4,30.04,East,97,0.0,4.0,88,0.00,,---,0.00,VWS V14.01,2013-10-15 07:33:00,
2013-10-15 02:38:00,45.7,42.7,30.04,SE,129,2.0,4.0,89,0.00,,---,0.00,VWS V14.01,2013-10-15 07:38:00,
2013-10-15 02:43:00,45.8,42.8,30.04,ESE,107,1.0,4.0,89,0.00,,---,0.00,VWS V14.01,2013-10-15 07:43:00,
2013-10-15 02:48:00,45.9,42.8,30.04,ENE,74,2.0,5.0,89,0.00,,---,0.00,VWS V14.01,2013-10-15 07:48:00,
2013-10-15 02:54:00,45.9,42.8,30.04,ESE,103,1.0,5.0,89,0.00,,---,0.00,VWS V14.01,2013-10-15 07:54:00,
2013-10-15 02:59:00,46.0,43.0,30.04,SE,125,1.0,5.0,89,0.00,,---,0.00,VWS V14.01,2013-10-15 07:59:00,
2013-10-15 03:04:00,46.0,43.0,30.03,East,98,0.0,2.0,89,0.00,,---,0.00,VWS V14.01,2013-10-15 08:04:00,
2013-10-15 03:09:00,46.0,43.0,30.03,ESE,109,0.0,2.0,89,0.00,,---,0.00,VWS V14.01,2013-10-15 08:09:00,
2013-10-15 03:14:00,46.0,43.0,30.03,ESE,109,0.0,2.0,89,0.00,,---,0.00,VWS V14.01,2013-10-15 08:14:00,
2013-10-15 03:19:00,46.0,43.0,30.03,ESE,107,0.0,2.0,89,0.00,,---,0.00,VWS V14.01,2013-10-15 08:19:00,
2013-10-15 03:24:00,46.1,43.0,30.03,SE,125,1.0,3.0,89,0.00,,---,0.00,VWS V14.01,2013-10-15 08:24:00,
2013-10-15 03:29:00,46.0,43.0,30.02,SE,126,0.0,3.0,89,0.00,,---,0.00,VWS V14.01,2013-10-15 08:29:00,
2013-10-15 03:34:00,46.0,43.2,30.02,SE,126,0.0,0.0,90,0.00,,---,0.00,VWS V14.01,2013-10-15 08:34:00,
2013-10-15 03:39:00,46.0,43.2,30.02,SE,126,0.0,0.0,90,0.00,,---,0.00,VWS V14.01,2013-10-15 08:39:00,
2013-10-15 03:44:00,46.0,43.2,30.02,SE,126,0.0,0.0,90,0.00,,---,0.00,VWS V14.01,2013-10-15 08:44:00,
2013-10-15 03:49:00,46.1,43.3,30.02,ESE,109,0.0,0.0,90,0.00,,---,0.00,VWS V14.01,2013-10-15 08:49:00,
2013-10-15 03:54:00,46.1,43.3,30.02,ESE,109,0.0,0.0,90,0.00,,---,0.00,VWS V14.01,2013-10-15 08:54:00,
2013-10-15 03:55:00,46.1,43.3,30.02,ESE,109,0.0,0.0,90,0.00,,---,0.00,VWS V14.01,2013-10-15 08:55:00,
2013-10-15 04:00:00,46.1,43.3,30.02,ESE,119,0.0,0.0,90,0.00,,---,0.00,VWS V14.01,2013-10-15 09:00:00,
2013-10-15 04:05:00,46.2,43.4,30.02,ESE,117,0.0,0.0,90,0.00,,---,0.00,VWS V14.01,2013-10-15 09:05:00,
2013-10-15 04:10:00,46.3,43.5,30.02,ESE,117,0.0,0.0,90,0.00,,---,0.00,VWS V14.01,2013-10-15 09:10:00,
2013-10-15 04:15:00,46.4,43.6,30.02,East,92,0.0,0.0,90,0.00,,---,0.00,VWS V14.01,2013-10-15 09:15:00,
2013-10-15 04:20:00,46.4,43.6,30.02,ESE,111,0.0,0.0,90,0.00,,---,0.00,VWS V14.01,2013-10-15 09:20:00,
2013-10-15 04:25:00,46.5,43.7,30.02,ESE,111,0.0,0.0,90,0.00,,---,0.00,VWS V14.01,2013-10-15 09:25:00,
2013-10-15 04:30:00,46.5,43.7,30.01,ESE,103,0.0,0.0,90,0.00,,---,0.00,VWS V14.01,2013-10-15 09:30:00,
2013-10-15 04:35:00,46.4,43.9,30.01,ESE,111,0.0,0.0,91,0.00,,---,0.00,VWS V14.01,2013-10-15 09:35:00,
2013-10-15 04:41:00,46.3,43.8,30.01,ESE,106,0.0,0.0,91,0.00,,---,0.00,VWS V14.01,2013-10-15 09:41:00,
2013-10-15 04:46:00,46.2,44.0,29.99,ESE,108,0.0,0.0,92,0.00,,---,0.00,VWS V14.01,2013-10-15 09:46:00,
2013-10-15 04:51:00,46.0,43.8,29.99,ESE,117,1.0,3.0,92,0.01,,---,0.01,VWS V14.01,2013-10-15 09:51:00,
2013-10-15 04:56:00,45.9,44.0,29.99,ESE,109,1.0,3.0,93,0.01,,---,0.01,VWS V14.01,2013-10-15 09:56:00,
2013-10-15 05:01:00,45.8,44.2,29.98,ESE,117,2.0,2.0,94,0.01,,---,0.01,VWS V14.01,2013-10-15 10:01:00,
2013-10-15 05:06:00,45.7,44.1,29.98,East,101,2.0,3.0,94,0.02,,---,0.02,VWS V14.01,2013-10-15 10:06:00,
2013-10-15 05:11:00,45.6,44.0,29.98,ESE,114,2.0,3.0,94,0.02,,---,0.02,VWS V14.01,2013-10-15 10:11:00,
2013-10-15 05:16:00,45.6,44.2,29.97,ESE,121,3.0,3.0,95,0.02,,---,0.02,VWS V14.01,2013-10-15 10:16:00,
2013-10-15 05:21:00,45.6,44.2,29.97,ESE,116,2.0,5.0,95,0.02,,---,0.02,VWS V14.01,2013-10-15 10:21:00,
2013-10-15 05:26:00,45.6,44.2,29.97,ESE,110,3.0,5.0,95,0.02,,---,0.02,VWS V14.01,2013-10-15 10:26:00,
2013-10-15 05:31:00,45.6,44.2,29.95,ESE,103,2.0,2.0,95,0.02,,---,0.02,VWS V14.01,2013-10-15 10:31:00,
2013-10-15 05:36:00,45.6,44.2,29.95,ESE,103,2.0,3.0,95,0.02,,---,0.02,VWS V14.01,2013-10-15 10:36:00,
2013-10-15 05:41:00,45.6,44.2,29.95,ESE,105,3.0,3.0,95,0.02,,---,0.02,VWS V14.01,2013-10-15 10:41:00,
2013-10-15 05:46:00,45.7,44.3,29.94,ESE,102,2.0,3.0,95,0.02,,---,0.02,VWS V14.01,2013-10-15 10:46:00,
2013-10-15 05:51:00,45.7,44.3,29.94,East,94,1.0,5.0,95,0.02,,---,0.02,VWS V14.01,2013-10-15 10:51:00,
2013-10-15 05:56:00,45.7,44.3,29.94,ESE,117,2.0,5.0,95,0.02,,---,0.02,VWS V14.01,2013-10-15 10:56:00,
2013-10-15 06:02:00,45.7,44.3,29.93,ESE,102,3.0,3.0,95,0.02,,---,0.03,VWS V14.01,2013-10-15 11:02:00,
2013-10-15 06:07:00,45.7,44.3,29.93,ESE,113,2.0,3.0,95,0.02,,---,0.03,VWS V14.01,2013-10-15 11:07:00,
2013-10-15 06:12:00,45.7,44.3,29.93,ESE,110,2.0,3.0,95,0.02,,---,0.03,VWS V14.01,2013-10-15 11:12:00,
2013-10-15 06:17:00,45.7,44.3,29.93,SE,125,3.0,3.0,95,0.02,,---,0.03,VWS V14.01,2013-10-15 11:17:00,
2013-10-15 06:22:00,45.7,44.6,29.93,ESE,103,3.0,5.0,96,0.03,,---,0.04,VWS V14.01,2013-10-15 11:22:00,
2013-10-15 06:27:00,45.7,44.6,29.93,ESE,107,1.0,5.0,96,0.03,,---,0.04,VWS V14.01,2013-10-15 11:27:00,
2013-10-15 06:32:00,45.7,44.6,29.91,East,86,2.0,4.0,96,0.02,,---,0.04,VWS V14.01,2013-10-15 11:32:00,
2013-10-15 06:37:00,45.7,44.6,29.91,ESE,107,2.0,5.0,96,0.03,,---,0.05,VWS V14.01,2013-10-15 11:37:00,
2013-10-15 06:42:00,45.7,44.6,29.91,East,97,2.0,5.0,96,0.03,,---,0.05,VWS V14.01,2013-10-15 11:42:00,
2013-10-15 06:47:00,45.7,44.6,29.88,East,87,3.0,5.0,96,0.03,,---,0.05,VWS V14.01,2013-10-15 11:47:00,
2013-10-15 06:52:00,45.8,44.7,29.88,SE,133,3.0,6.0,96,0.03,,---,0.05,VWS V14.01,2013-10-15 11:52:00,
2013-10-15 06:57:00,45.9,44.8,29.88,ESE,115,3.0,6.0,96,0.03,,---,0.05,VWS V14.01,2013-10-15 11:57:00,
2013-10-15 07:02:00,46.0,44.9,29.87,ESE,109,2.0,5.0,96,0.03,,---,0.06,VWS V14.01,2013-10-15 12:02:00,
2013-10-15 07:07:00,46.1,45.3,29.87,ESE,114,2.0,6.0,97,0.03,,---,0.06,VWS V14.01,2013-10-15 12:07:00,
2013-10-15 07:12:00,46.2,45.4,29.87,ESE,105,3.0,6.0,97,0.04,,---,0.07,VWS V14.01,2013-10-15 12:12:00,
2013-10-15 07:17:00,46.4,45.6,29.86,ESE,107,4.0,7.0,97,0.04,,---,0.07,VWS V14.01,2013-10-15 12:17:00,
2013-10-15 07:22:00,46.5,45.7,29.86,ESE,110,3.0,7.0,97,0.05,,---,0.08,VWS V14.01,2013-10-15 12:22:00,
2013-10-15 07:27:00,46.6,45.8,29.86,East,92,5.0,7.0,97,0.06,,---,0.09,VWS V14.01,2013-10-15 12:27:00,
2013-10-15 07:32:00,46.7,45.9,29.84,ESE,107,4.0,7.0,97,0.06,,---,0.10,VWS V14.01,2013-10-15 12:32:00,
2013-10-15 07:37:00,46.9,46.1,29.84,East,98,3.0,9.0,97,0.06,,---,0.10,VWS V14.01,2013-10-15 12:37:00,
2013-10-15 07:42:00,47.0,46.2,29.84,ESE,117,4.0,9.0,97,0.06,,---,0.10,VWS V14.01,2013-10-15 12:42:00,
2013-10-15 07:47:00,47.1,46.3,29.84,SE,129,2.0,9.0,97,0.06,,---,0.10,VWS V14.01,2013-10-15 12:47:00,
2013-10-15 07:52:00,47.3,46.5,29.84,SE,141,3.0,9.0,97,0.07,,---,0.11,VWS V14.01,2013-10-15 12:52:00,
2013-10-15 07:58:00,47.4,46.6,29.84,SE,134,6.0,9.0,97,0.07,,---,0.11,VWS V14.01,2013-10-15 12:58:00,
2013-10-15 08:03:00,47.6,46.8,29.85,ESE,110,2.0,4.0,97,0.07,,---,0.12,VWS V14.01,2013-10-15 13:03:00,
2013-10-15 08:08:00,47.7,46.9,29.85,East,84,3.0,7.0,97,0.08,,---,0.13,VWS V14.01,2013-10-15 13:08:00,
2013-10-15 08:13:00,47.8,47.0,29.85,ENE,59,3.0,7.0,97,0.10,,---,0.15,VWS V14.01,2013-10-15 13:13:00,
2013-10-15 08:18:00,47.9,47.1,29.83,ESE,109,2.0,7.0,97,0.12,,---,0.17,VWS V14.01,2013-10-15 13:18:00,
2013-10-15 08:23:00,48.0,47.2,29.83,East,79,3.0,7.0,97,0.12,,---,0.17,VWS V14.01,2013-10-15 13:23:00,
2013-10-15 08:28:00,48.1,47.3,29.83,SE,130,4.0,7.0,97,0.13,,---,0.18,VWS V14.01,2013-10-15 13:28:00,
2013-10-15 08:33:00,48.2,47.4,29.83,East,94,3.0,4.0,97,0.10,,---,0.19,VWS V14.01,2013-10-15 13:33:00,
2013-10-15 08:38:00,48.2,47.4,29.83,East,95,3.0,6.0,97,0.12,,---,0.21,VWS V14.01,2013-10-15 13:38:00,
2013-10-15 08:43:00,48.3,47.5,29.83,ESE,123,2.0,6.0,97,0.14,,---,0.23,VWS V14.01,2013-10-15 13:43:00,
2013-10-15 08:48:00,48.3,47.8,29.81,SE,126,2.0,6.0,98,0.16,,---,0.25,VWS V14.01,2013-10-15 13:48:00,
2013-10-15 08:53:00,48.4,47.9,29.81,ESE,105,2.0,7.0,98,0.17,,---,0.26,VWS V14.01,2013-10-15 13:53:00,
2013-10-15 08:58:00,48.5,48.0,29.81,ESE,116,2.0,7.0,98,0.18,,---,0.27,VWS V14.01,2013-10-15 13:58:00,
2013-10-15 09:03:00,48.5,48.0,29.80,ESE,107,3.0,6.0,98,0.18,,---,0.29,VWS V14.01,2013-10-15 14:03:00,
2013-10-15 09:08:00,48.5,48.0,29.80,SE,128,3.0,6.0,98,0.20,,---,0.31,VWS V14.01,2013-10-15 14:08:00,
2013-10-15 09:13:00,48.6,48.1,29.80,ESE,107,2.0,6.0,98,0.23,,---,0.34,VWS V14.01,2013-10-15 14:13:00,
2013-10-15 09:18:00,48.7,48.2,29.81,ESE,109,3.0,6.0,98,0.25,,---,0.36,VWS V14.01,2013-10-15 14:18:00,
2013-10-15 09:23:00,48.7,48.2,29.81,ESE,115,4.0,6.0,98,0.28,,---,0.39,VWS V14.01,2013-10-15 14:23:00,
2013-10-15 09:28:00,48.8,48.3,29.81,ESE,105,3.0,6.0,98,0.30,,---,0.41,VWS V14.01,2013-10-15 14:28:00,
2013-10-15 09:33:00,48.8,48.3,29.80,ESE,109,5.0,7.0,98,0.22,,---,0.41,VWS V14.01,2013-10-15 14:33:00,
2013-10-15 09:38:00,48.9,48.4,29.80,East,90,3.0,8.0,98,0.22,,---,0.41,VWS V14.01,2013-10-15 14:38:00,
2013-10-15 09:43:00,48.9,48.4,29.80,ESE,119,5.0,8.0,98,0.22,,---,0.41,VWS V14.01,2013-10-15 14:43:00,
2013-10-15 09:48:00,48.9,48.4,29.78,East,90,3.0,8.0,98,0.23,,---,0.42,VWS V14.01,2013-10-15 14:48:00,
2013-10-15 09:54:00,48.9,48.4,29.78,SE,125,2.0,8.0,98,0.24,,---,0.43,VWS V14.01,2013-10-15 14:54:00,
2013-10-15 09:59:00,49.0,48.5,29.78,ESE,123,4.0,8.0,98,0.25,,---,0.45,VWS V14.01,2013-10-15 14:59:00,
2013-10-15 10:04:00,49.0,48.5,29.77,ESE,109,7.0,7.0,98,0.18,,---,0.45,VWS V14.01,2013-10-15 15:04:00,
2013-10-15 10:09:00,49.1,48.6,29.77,ESE,121,3.0,7.0,98,0.18,,---,0.45,VWS V14.01,2013-10-15 15:09:00,
2013-10-15 10:14:00,49.2,48.7,29.77,ESE,115,3.0,7.0,98,0.19,,---,0.46,VWS V14.01,2013-10-15 15:14:00,
2013-10-15 10:19:00,49.2,48.4,29.77,ESE,121,2.0,7.0,97,0.20,,---,0.47,VWS V14.01,2013-10-15 15:19:00,
2013-10-15 10:24:00,49.2,48.4,29.77,ESE,119,4.0,7.0,97,0.20,,---,0.47,VWS V14.01,2013-10-15 15:24:00,
2013-10-15 10:29:00,49.2,48.4,29.77,SE,126,3.0,7.0,97,0.20,,---,0.47,VWS V14.01,2013-10-15 15:29:00,
2013-10-15 10:34:00,49.2,48.4,29.77,East,95,3.0,5.0,97,0.07,,---,0.48,VWS V14.01,2013-10-15 15:34:00,
2013-10-15 10:39:00,49.2,48.4,29.77,ESE,122,1.0,5.0,97,0.08,,---,0.49,VWS V14.01,2013-10-15 15:39:00,
2013-10-15 10:44:00,49.2,48.4,29.77,ESE,106,1.0,5.0,97,0.08,,---,0.49,VWS V14.01,2013-10-15 15:44:00,
2013-10-15 10:49:00,49.2,48.4,29.77,East,92,3.0,5.0,97,0.09,,---,0.50,VWS V14.01,2013-10-15 15:49:00,
2013-10-15 10:54:00,49.3,48.5,29.77,SE,134,3.0,5.0,97,0.09,,---,0.50,VWS V14.01,2013-10-15 15:54:00,
2013-10-15 10:59:00,49.3,48.8,29.76,ESE,102,2.0,5.0,98,0.09,,---,0.50,VWS V14.01,2013-10-15 15:59:00,
2013-10-15 11:04:00,49.4,48.9,29.76,SE,126,2.0,3.0,98,0.05,,---,0.50,VWS V14.01,2013-10-15 16:04:00,
2013-10-15 11:09:00,49.5,49.0,29.76,ESE,121,2.0,6.0,98,0.05,,---,0.50,VWS V14.01,2013-10-15 16:09:00,
2013-10-15 11:14:00,49.6,49.1,29.75,East,95,5.0,6.0,98,0.05,,---,0.50,VWS V14.01,2013-10-15 16:14:00,
2013-10-15 11:19:00,49.7,49.2,29.75,ESE,114,2.0,6.0,98,0.06,,---,0.51,VWS V14.01,2013-10-15 16:19:00,
2013-10-15 11:24:00,49.7,49.2,29.75,SE,124,2.0,6.0,98,0.06,,---,0.51,VWS V14.01,2013-10-15 16:24:00,
2013-10-15 11:29:00,49.7,49.2,29.75,East,98,2.0,6.0,98,0.07,,---,0.52,VWS V14.01,2013-10-15 16:29:00,
2013-10-15 11:34:00,49.7,49.2,29.75,ESE,113,2.0,7.0,98,0.04,,---,0.52,VWS V14.01,2013-10-15 16:34:00,
2013-10-15 11:40:00,49.8,49.3,29.75,SE,134,1.0,7.0,98,0.04,,---,0.52,VWS V14.01,2013-10-15 16:40:00,
2013-10-15 11:45:00,49.9,49.4,29.74,ESE,103,2.0,7.0,98,0.04,,---,0.52,VWS V14.01,2013-10-15 16:45:00,
2013-10-15 11:50:00,49.9,49.4,29.74,SE,133,2.0,7.0,98,0.04,,---,0.52,VWS V14.01,2013-10-15 16:50:00,
2013-10-15 11:55:00,50.0,49.5,29.74,SE,133,2.0,7.0,98,0.04,,---,0.52,VWS V14.01,2013-10-15 16:55:00,
2013-10-15 12:00:00,50.0,49.5,29.73,ESE,119,2.0,7.0,98,0.04,,---,0.52,VWS V14.01,2013-10-15 17:00:00,
2013-10-15 12:05:00,50.2,49.7,29.73,East,94,2.0,3.0,98,0.02,,---,0.52,VWS V14.01,2013-10-15 17:05:00,
2013-10-15 12:10:00,50.3,49.8,29.73,ESE,119,4.0,5.0,98,0.02,,---,0.52,VWS V14.01,2013-10-15 17:10:00,
2013-10-15 12:15:00,50.2,49.7,29.73,ESE,110,4.0,7.0,98,0.03,,---,0.53,VWS V14.01,2013-10-15 17:15:00,
2013-10-15 12:20:00,50.3,49.8,29.73,ESE,103,3.0,7.0,98,0.03,,---,0.53,VWS V14.01,2013-10-15 17:20:00,
2013-10-15 12:25:00,50.3,49.8,29.73,ESE,113,3.0,7.0,98,0.03,,---,0.53,VWS V14.01,2013-10-15 17:25:00,
2013-10-15 12:30:00,50.4,49.9,29.72,ESE,121,3.0,7.0,98,0.03,,---,0.53,VWS V14.01,2013-10-15 17:30:00,
2013-10-15 12:35:00,50.4,49.9,29.72,ESE,106,2.0,5.0,98,0.01,,---,0.53,VWS V14.01,2013-10-15 17:35:00,
2013-10-15 12:40:00,50.5,50.0,29.72,ESE,106,2.0,5.0,98,0.01,,---,0.53,VWS V14.01,2013-10-15 17:40:00,
2013-10-15 12:45:00,50.5,50.0,29.71,East,86,3.0,5.0,98,0.01,,---,0.53,VWS V14.01,2013-10-15 17:45:00,
2013-10-15 12:50:00,50.6,50.1,29.71,ESE,107,3.0,5.0,98,0.01,,---,0.53,VWS V14.01,2013-10-15 17:50:00,
2013-10-15 12:55:00,50.7,50.2,29.71,SE,125,3.0,5.0,98,0.01,,---,0.53,VWS V14.01,2013-10-15 17:55:00,
2013-10-15 13:00:00,50.8,50.3,29.70,ESE,122,2.0,2.0,98,0.01,,---,0.53,VWS V14.01,2013-10-15 18:00:00,
2013-10-15 13:05:00,50.8,50.3,29.70,East,90,1.0,4.0,98,0.01,,---,0.53,VWS V14.01,2013-10-15 18:05:00,
2013-10-15 13:10:00,50.8,50.3,29.70,SE,130,2.0,4.0,98,0.01,,---,0.53,VWS V14.01,2013-10-15 18:10:00,
2013-10-15 13:15:00,50.8,50.3,29.70,SE,133,1.0,5.0,98,0.01,,---,0.53,VWS V14.01,2013-10-15 18:15:00,
2013-10-15 13:20:00,50.8,50.3,29.70,East,95,2.0,5.0,98,0.01,,---,0.53,VWS V14.01,2013-10-15 18:20:00,
2013-10-15 13:25:00,50.8,50.3,29.70,ESE,123,2.0,5.0,98,0.01,,---,0.53,VWS V14.01,2013-10-15 18:25:00,
2013-10-15 13:30:00,50.9,50.4,29.69,ESE,110,1.0,3.0,98,0.00,,---,0.53,VWS V14.01,2013-10-15 18:30:00,
2013-10-15 13:35:00,50.9,50.4,29.69,East,97,2.0,3.0,98,0.00,,---,0.53,VWS V14.01,2013-10-15 18:35:00,
2013-10-15 13:40:00,50.9,50.4,29.69,ESE,121,2.0,4.0,98,0.00,,---,0.53,VWS V14.01,2013-10-15 18:40:00,
2013-10-15 13:45:00,50.9,50.4,29.68,ESE,113,3.0,4.0,98,0.00,,---,0.53,VWS V14.01,2013-10-15 18:45:00,
2013-10-15 13:50:00,50.9,50.4,29.68,ESE,110,2.0,4.0,98,0.00,,---,0.53,VWS V14.01,2013-10-15 18:50:00,
2013-10-15 13:56:00,50.9,50.4,29.68,ESE,107,2.0,4.0,98,0.01,,---,0.54,VWS V14.01,2013-10-15 18:56:00,
2013-10-15 14:01:00,51.0,50.5,29.67,ESE,116,2.0,2.0,98,0.01,,---,0.54,VWS V14.01,2013-10-15 19:01:00,
2013-10-15 14:06:00,51.0,50.5,29.67,East,101,2.0,3.0,98,0.01,,---,0.54,VWS V14.01,2013-10-15 19:06:00,
2013-10-15 14:11:00,51.1,50.6,29.67,SE,126,1.0,3.0,98,0.01,,---,0.54,VWS V14.01,2013-10-15 19:11:00,
2013-10-15 14:16:00,51.1,50.6,29.67,ESE,106,1.0,3.0,98,0.01,,---,0.54,VWS V14.01,2013-10-15 19:16:00,
2013-10-15 14:21:00,51.1,50.6,29.67,ESE,115,1.0,3.0,98,0.01,,---,0.54,VWS V14.01,2013-10-15 19:21:00,
2013-10-15 14:26:00,51.2,50.7,29.67,East,100,0.0,3.0,98,0.01,,---,0.54,VWS V14.01,2013-10-15 19:26:00,
2013-10-15 14:31:00,51.3,50.8,29.66,ESE,102,0.0,2.0,98,0.01,,---,0.54,VWS V14.01,2013-10-15 19:31:00,
2013-10-15 14:36:00,51.5,51.0,29.66,SE,130,1.0,3.0,98,0.01,,---,0.54,VWS V14.01,2013-10-15 19:36:00,
2013-10-15 14:41:00,51.6,51.1,29.66,ESE,116,3.0,4.0,98,0.01,,---,0.54,VWS V14.01,2013-10-15 19:41:00,
2013-10-15 14:46:00,51.5,51.0,29.65,ESE,105,1.0,4.0,98,0.01,,---,0.54,VWS V14.01,2013-10-15 19:46:00,
2013-10-15 14:51:00,51.6,51.1,29.65,ESE,111,2.0,4.0,98,0.01,,---,0.54,VWS V14.01,2013-10-15 19:51:00,
2013-10-15 14:56:00,51.6,51.1,29.65,ESE,111,1.0,4.0,98,0.01,,---,0.54,VWS V14.01,2013-10-15 19:56:00,
2013-10-15 15:01:00,51.6,51.1,29.65,East,101,1.0,2.0,98,0.00,,---,0.54,VWS V14.01,2013-10-15 20:01:00,
2013-10-15 15:06:00,51.7,51.2,29.65,ESE,109,1.0,2.0,98,0.00,,---,0.54,VWS V14.01,2013-10-15 20:06:00,
2013-10-15 15:11:00,51.8,51.3,29.65,SE,129,1.0,3.0,98,0.00,,---,0.54,VWS V14.01,2013-10-15 20:11:00,
2013-10-15 15:17:00,51.9,51.4,29.64,SE,125,2.0,3.0,98,0.00,,---,0.54,VWS V14.01,2013-10-15 20:17:00,
2013-10-15 15:22:00,51.8,51.3,29.64,SE,124,3.0,3.0,98,0.00,,---,0.54,VWS V14.01,2013-10-15 20:22:00,
2013-10-15 15:27:00,51.8,51.3,29.64,ESE,122,1.0,3.0,98,0.00,,---,0.54,VWS V14.01,2013-10-15 20:27:00,
2013-10-15 15:32:00,51.8,51.3,29.64,ESE,106,3.0,3.0,98,0.00,,---,0.54,VWS V14.01,2013-10-15 20:32:00,
2013-10-15 15:37:00,51.8,51.3,29.64,East,98,1.0,3.0,98,0.00,,---,0.54,VWS V14.01,2013-10-15 20:37:00,
2013-10-15 15:42:00,51.8,51.3,29.64,ESE,119,0.0,3.0,98,0.00,,---,0.54,VWS V14.01,2013-10-15 20:42:00,
2013-10-15 15:47:00,51.9,51.4,29.64,SE,132,0.0,3.0,98,0.00,,---,0.54,VWS V14.01,2013-10-15 20:47:00,
2013-10-15 15:52:00,51.9,51.4,29.64,ESE,111,2.0,3.0,98,0.00,,---,0.54,VWS V14.01,2013-10-15 20:52:00,
2013-10-15 15:57:00,51.9,51.4,29.64,ESE,121,0.0,3.0,98,0.00,,---,0.54,VWS V14.01,2013-10-15 20:57:00,
2013-10-15 16:02:00,51.9,51.4,29.63,ESE,114,0.0,1.0,98,0.00,,---,0.54,VWS V14.01,2013-10-15 21:02:00,
2013-10-15 16:07:00,51.9,51.4,29.63,ESE,116,0.0,1.0,98,0.00,,---,0.54,VWS V14.01,2013-10-15 21:07:00,
2013-10-15 16:12:00,51.9,51.4,29.63,ESE,119,0.0,1.0,98,0.00,,---,0.54,VWS V14.01,2013-10-15 21:12:00,
2013-10-15 16:17:00,51.9,51.4,29.63,SE,128,0.0,1.0,98,0.00,,---,0.54,VWS V14.01,2013-10-15 21:17:00,
2013-10-15 16:22:00,51.9,51.4,29.63,ESE,113,0.0,1.0,98,0.00,,---,0.54,VWS V14.01,2013-10-15 21:22:00,
2013-10-15 16:27:00,52.0,51.5,29.63,ESE,117,0.0,1.0,98,0.00,,---,0.54,VWS V14.01,2013-10-15 21:27:00,
2013-10-15 16:32:00,52.0,51.5,29.63,ESE,115,0.0,0.0,98,0.00,,---,0.54,VWS V14.01,2013-10-15 21:32:00,
2013-10-15 16:37:00,51.9,51.4,29.63,ESE,114,0.0,0.0,98,0.00,,---,0.54,VWS V14.01,2013-10-15 21:37:00,
2013-10-15 16:42:00,51.9,51.4,29.63,ESE,110,1.0,3.0,98,0.00,,---,0.54,VWS V14.01,2013-10-15 21:42:00,
2013-10-15 16:47:00,51.9,51.4,29.63,ESE,119,0.0,3.0,98,0.00,,---,0.54,VWS V14.01,2013-10-15 21:47:00,
2013-10-15 16:52:00,51.9,51.4,29.63,ESE,112,0.0,3.0,98,0.00,,---,0.54,VWS V14.01,2013-10-15 21:52:00,
2013-10-15 16:57:00,51.8,51.3,29.63,SE,128,0.0,3.0,98,0.00,,---,0.54,VWS V14.01,2013-10-15 21:57:00,
2013-10-15 17:02:00,51.8,51.3,29.63,ESE,117,0.0,0.0,98,0.00,,---,0.54,VWS V14.01,2013-10-15 22:02:00,
2013-10-15 17:08:00,51.7,51.2,29.63,ESE,107,2.0,2.0,98,0.00,,---,0.54,VWS V14.01,2013-10-15 22:08:00,
2013-10-15 17:13:00,51.7,51.2,29.63,ESE,102,2.0,3.0,98,0.00,,---,0.54,VWS V14.01,2013-10-15 22:13:00,
2013-10-15 17:18:00,51.7,51.2,29.63,ESE,109,1.0,3.0,98,0.00,,---,0.54,VWS V14.01,2013-10-15 22:18:00,
2013-10-15 17:23:00,51.6,51.1,29.63,ESE,118,1.0,3.0,98,0.00,,---,0.54,VWS V14.01,2013-10-15 22:23:00,
2013-10-15 17:28:00,51.6,51.1,29.63,ESE,119,0.0,3.0,98,0.00,,---,0.54,VWS V14.01,2013-10-15 22:28:00,
2013-10-15 17:33:00,51.6,51.1,29.63,East,101,0.0,1.0,98,0.00,,---,0.54,VWS V14.01,2013-10-15 22:33:00,
2013-10-15 17:38:00,51.6,51.1,29.63,ESE,111,0.0,1.0,98,0.01,,---,0.55,VWS V14.01,2013-10-15 22:38:00,
2013-10-15 17:43:00,51.6,51.1,29.63,ESE,111,0.0,1.0,98,0.01,,---,0.55,VWS V14.01,2013-10-15 22:43:00,
2013-10-15 17:48:00,51.6,51.3,29.62,ESE,110,0.0,1.0,99,0.01,,---,0.55,VWS V14.01,2013-10-15 22:48:00,
2013-10-15 17:53:00,51.6,51.3,29.62,ESE,111,0.0,1.0,99,0.01,,---,0.55,VWS V14.01,2013-10-15 22:53:00,
2013-10-15 17:58:00,51.6,51.3,29.62,ESE,110,0.0,1.0,99,0.01,,---,0.55,VWS V14.01,2013-10-15 22:58:00,
2013-10-15 18:03:00,51.5,51.2,29.62,ESE,111,0.0,0.0,99,0.01,,---,0.55,VWS V14.01,2013-10-15 23:03:00,
2013-10-15 18:08:00,51.5,51.2,29.62,ESE,111,0.0,0.0,99,0.02,,---,0.56,VWS V14.01,2013-10-15 23:08:00,
2013-10-15 18:13:00,51.5,51.2,29.62,ESE,111,0.0,0.0,99,0.02,,---,0.56,VWS V14.01,2013-10-15 23:13:00,
2013-10-15 18:18:00,51.6,51.3,29.62,ESE,111,0.0,0.0,99,0.02,,---,0.56,VWS V14.01,2013-10-15 23:18:00,
2013-10-15 18:23:00,51.6,51.3,29.62,ESE,111,0.0,0.0,99,0.02,,---,0.56,VWS V14.01,2013-10-15 23:23:00,
2013-10-15 18:28:00,51.6,51.3,29.62,SSW,196,0.0,0.0,99,0.02,,---,0.56,VWS V14.01,2013-10-15 23:28:00,
2013-10-15 18:34:00,51.6,51.3,29.62,SSW,196,0.0,0.0,99,0.02,,---,0.56,VWS V14.01,2013-10-15 23:34:00,
2013-10-15 18:39:00,51.6,51.3,29.62,South,187,0.0,0.0,99,0.02,,---,0.56,VWS V14.01,2013-10-15 23:39:00,
2013-10-15 18:44:00,51.6,51.3,29.62,ESE,113,0.0,0.0,99,0.02,,---,0.56,VWS V14.01,2013-10-15 23:44:00,
2013-10-15 18:49:00,51.6,51.3,29.62,ESE,113,0.0,0.0,99,0.02,,---,0.56,VWS V14.01,2013-10-15 23:49:00,
2013-10-15 18:54:00,51.6,51.3,29.62,ESE,113,0.0,0.0,99,0.02,,---,0.56,VWS V14.01,2013-10-15 23:54:00,
2013-10-15 18:59:00,51.6,51.3,29.62,ESE,113,0.0,0.0,99,0.02,,---,0.56,VWS V14.01,2013-10-15 23:59:00,
2013-10-15 19:04:00,51.7,51.4,29.62,ESE,113,0.0,0.0,99,0.01,,---,0.56,VWS V14.01,2013-10-16 00:04:00,
2013-10-15 19:09:00,51.6,51.3,29.62,ESE,113,0.0,0.0,99,0.01,,---,0.56,VWS V14.01,2013-10-16 00:09:00,
2013-10-15 19:14:00,51.6,51.3,29.62,ESE,113,0.0,0.0,99,0.01,,---,0.56,VWS V14.01,2013-10-16 00:14:00,
2013-10-15 19:19:00,51.6,51.3,29.61,ESE,113,0.0,0.0,99,0.01,,---,0.56,VWS V14.01,2013-10-16 00:19:00,
2013-10-15 19:24:00,51.6,51.3,29.61,ESE,113,0.0,0.0,99,0.01,,---,0.56,VWS V14.01,2013-10-16 00:24:00,
2013-10-15 19:29:00,51.7,51.4,29.61,ESE,113,0.0,0.0,99,0.01,,---,0.56,VWS V14.01,2013-10-16 00:29:00,
2013-10-15 19:34:00,51.7,51.4,29.61,ESE,113,0.0,0.0,99,0.00,,---,0.56,VWS V14.01,2013-10-16 00:34:00,
2013-10-15 19:39:00,51.7,51.4,29.61,ESE,113,0.0,0.0,99,0.00,,---,0.56,VWS V14.01,2013-10-16 00:39:00,
2013-10-15 19:44:00,51.7,51.4,29.61,ESE,113,0.0,0.0,99,0.00,,---,0.56,VWS V14.01,2013-10-16 00:44:00,
2013-10-15 19:49:00,51.7,51.4,29.61,ESE,113,0.0,0.0,99,0.00,,---,0.56,VWS V14.01,2013-10-16 00:49:00,
2013-10-15 19:54:00,51.7,51.4,29.61,ESE,113,0.0,0.0,99,0.00,,---,0.56,VWS V14.01,2013-10-16 00:54:00,
2013-10-15 19:59:00,51.8,51.5,29.61,ESE,113,0.0,0.0,99,0.00,,---,0.56,VWS V14.01,2013-10-16 00:59:00,
2013-10-15 20:04:00,51.8,51.5,29.61,ESE,113,0.0,0.0,99,0.00,,---,0.56,VWS V14.01,2013-10-16 01:04:00,
2013-10-15 20:09:00,51.8,51.5,29.61,ESE,113,0.0,0.0,99,0.00,,---,0.56,VWS V14.01,2013-10-16 01:09:00,
2013-10-15 20:14:00,51.8,51.5,29.61,ESE,113,0.0,0.0,99,0.00,,---,0.56,VWS V14.01,2013-10-16 01:14:00,
2013-10-15 20:19:00,51.8,51.5,29.61,ESE,113,0.0,0.0,99,0.00,,---,0.56,VWS V14.01,2013-10-16 01:19:00,
2013-10-15 20:24:00,51.8,51.5,29.61,South,180,0.0,0.0,99,0.00,,---,0.56,VWS V14.01,2013-10-16 01:24:00,
2013-10-15 20:30:00,51.7,51.4,29.61,SE,130,2.0,3.0,99,0.00,,---,0.56,VWS V14.01,2013-10-16 01:30:00,
2013-10-15 20:35:00,51.0,50.7,29.61,WSW,244,1.0,4.0,99,0.00,,---,0.56,VWS V14.01,2013-10-16 01:35:00,
2013-10-15 20:40:00,50.6,50.3,29.61,WSW,258,2.0,4.0,99,0.00,,---,0.56,VWS V14.01,2013-10-16 01:40:00,
2013-10-15 20:45:00,50.3,49.8,29.62,WSW,254,2.0,4.0,98,0.00,,---,0.56,VWS V14.01,2013-10-16 01:45:00,
2013-10-15 20:50:00,50.1,49.6,29.62,SW,236,0.0,4.0,98,0.00,,---,0.56,VWS V14.01,2013-10-16 01:50:00,
2013-10-15 20:55:00,50.0,49.5,29.62,West,260,0.0,4.0,98,0.00,,---,0.56,VWS V14.01,2013-10-16 01:55:00,
2013-10-15 21:00:00,50.0,49.5,29.62,West,263,0.0,4.0,98,0.00,,---,0.56,VWS V14.01,2013-10-16 02:00:00,
2013-10-15 21:05:00,50.0,49.5,29.62,WSW,238,0.0,2.0,98,0.00,,---,0.56,VWS V14.01,2013-10-16 02:05:00,
2013-10-15 21:10:00,49.9,49.4,29.62,WSW,250,1.0,2.0,98,0.00,,---,0.56,VWS V14.01,2013-10-16 02:10:00,
2013-10-15 21:15:00,49.9,49.4,29.62,WSW,257,3.0,4.0,98,0.00,,---,0.56,VWS V14.01,2013-10-16 02:15:00,
2013-10-15 21:20:00,49.7,49.2,29.62,WNW,294,2.0,10.0,98,0.01,,---,0.57,VWS V14.01,2013-10-16 02:20:00,
2013-10-15 21:25:00,49.6,49.1,29.62,West,263,1.0,10.0,98,0.01,,---,0.57,VWS V14.01,2013-10-16 02:25:00,
2013-10-15 21:30:00,49.5,49.0,29.62,West,261,1.0,1.0,98,0.01,,---,0.57,VWS V14.01,2013-10-16 02:30:00,
2013-10-15 21:35:00,49.3,48.8,29.62,WSW,242,1.0,1.0,98,0.01,,---,0.57,VWS V14.01,2013-10-16 02:35:00,
2013-10-15 21:40:00,49.2,48.7,29.62,WSW,252,1.0,2.0,98,0.01,,---,0.57,VWS V14.01,2013-10-16 02:40:00,
2013-10-15 21:45:00,49.0,48.5,29.63,West,263,1.0,3.0,98,0.02,,---,0.58,VWS V14.01,2013-10-16 02:45:00,
2013-10-15 21:50:00,49.0,48.5,29.63,WSW,248,2.0,4.0,98,0.02,,---,0.58,VWS V14.01,2013-10-16 02:50:00,
2013-10-15 21:55:00,48.9,48.4,29.63,WSW,253,0.0,4.0,98,0.02,,---,0.58,VWS V14.01,2013-10-16 02:55:00,
2013-10-15 22:00:00,48.8,48.3,29.63,West,260,1.0,1.0,98,0.03,,---,0.59,VWS V14.01,2013-10-16 03:00:00,
2013-10-15 22:05:00,48.7,48.2,29.63,West,275,1.0,3.0,98,0.04,,---,0.60,VWS V14.01,2013-10-16 03:05:00,
2013-10-15 22:10:00,48.6,48.1,29.63,WSW,256,1.0,3.0,98,0.04,,---,0.60,VWS V14.01,2013-10-16 03:10:00,
2013-10-15 22:16:00,48.6,48.1,29.63,WSW,246,1.0,3.0,98,0.04,,---,0.60,VWS V14.01,2013-10-16 03:16:00,
2013-10-15 22:21:00,48.5,48.0,29.63,West,268,1.0,3.0,98,0.04,,---,0.60,VWS V14.01,2013-10-16 03:21:00,
2013-10-15 22:26:00,48.5,48.0,29.63,WSW,238,1.0,3.0,98,0.04,,---,0.60,VWS V14.01,2013-10-16 03:26:00,
2013-10-15 22:31:00,48.4,47.9,29.63,WSW,257,1.0,1.0,98,0.04,,---,0.61,VWS V14.01,2013-10-16 03:31:00,
2013-10-15 22:36:00,48.3,47.8,29.63,WSW,241,1.0,3.0,98,0.04,,---,0.61,VWS V14.01,2013-10-16 03:36:00,
2013-10-15 22:41:00,48.2,47.7,29.63,West,280,2.0,4.0,98,0.04,,---,0.61,VWS V14.01,2013-10-16 03:41:00,
2013-10-15 22:46:00,48.1,47.6,29.63,WSW,244,4.0,5.0,98,0.04,,---,0.61,VWS V14.01,2013-10-16 03:46:00,
2013-10-15 22:51:00,47.9,47.4,29.63,WNW,296,3.0,5.0,98,0.04,,---,0.61,VWS V14.01,2013-10-16 03:51:00,
2013-10-15 22:56:00,47.9,47.4,29.63,West,261,1.0,5.0,98,0.04,,---,0.61,VWS V14.01,2013-10-16 03:56:00,
2013-10-15 23:01:00,47.8,47.3,29.62,West,269,0.0,1.0,98,0.02,,---,0.61,VWS V14.01,2013-10-16 04:01:00,
2013-10-15 23:02:00,47.8,47.3,29.62,WNW,291,2.0,2.0,98,0.02,,---,0.61,VWS V14.01,2013-10-16 04:02:00,
2013-10-15 23:03:00,47.8,47.3,29.62,West,267,1.0,3.0,98,0.02,,---,0.61,VWS V14.01,2013-10-16 04:03:00,
2013-10-15 23:07:00,47.8,47.3,29.62,WSW,241,0.0,3.0,98,0.02,,---,0.61,VWS V14.01,2013-10-16 04:07:00,
2013-10-15 23:12:00,47.8,47.3,29.62,West,265,0.0,3.0,98,0.02,,---,0.61,VWS V14.01,2013-10-16 04:12:00,
2013-10-15 23:17:00,47.8,47.3,29.62,WSW,246,2.0,3.0,98,0.02,,---,0.61,VWS V14.01,2013-10-16 04:17:00,
2013-10-15 23:22:00,47.8,47.3,29.62,West,279,0.0,3.0,98,0.02,,---,0.61,VWS V14.01,2013-10-16 04:22:00,
2013-10-15 23:25:00,47.8,47.3,29.62,West,279,0.0,3.0,98,0.02,,---,0.61,VWS V14.01,2013-10-16 04:25:00,
2013-10-15 23:30:00,47.7,47.2,29.62,WSW,257,0.0,3.0,98,0.02,,---,0.61,VWS V14.01,2013-10-16 04:30:00,
2013-10-15 23:35:00,47.7,47.2,29.62,West,259,0.0,0.0,98,0.00,,---,0.61,VWS V14.01,2013-10-16 04:35:00,
2013-10-15 23:40:00,47.6,47.1,29.62,West,264,1.0,3.0,98,0.00,,---,0.61,VWS V14.01,2013-10-16 04:40:00,
2013-10-15 23:45:00,47.6,47.1,29.62,West,267,2.0,3.0,98,0.00,,---,0.61,VWS V14.01,2013-10-16 04:45:00,
2013-10-15 23:50:00,47.6,47.1,29.62,West,268,1.0,4.0,98,0.01,,---,0.62,VWS V14.01,2013-10-16 04:50:00,
2013-10-15 23:55:00,47.6,47.1,29.62,WSW,257,1.0,4.0,98,0.01,,---,0.62,VWS V14.01,2013-10-16 04:55:00,